This demonstration page uses our WeatherBlox Daily Observations layout. Learn more.

Left ArrowRight Arrow

39.01783, -85.05884

Hourly Observations for July 4, 2020

Temp ( °F °C ) Dew Point ( °F °C ) Humidity (%) Winds ( mph kmh ) Pressure ( in mb ) Visibility ( mi km ) Precip ( " mm )
12:52 am 00:52 Clear 75 23.9 64 17.8 69 69 Calm 29.96 1015 10 16 0.00 0.00
1:52 am 01:52 Clear 75 23.9 64 17.8 69 69 WNW 3 6 29.96 1015 10 16 0.00 0.00
2:52 am 02:52 Clear 71 21.7 64 17.8 79 79 Calm 29.95 1014 10 16 0.00 0.00
3:52 am 03:52 Clear 72 22.2 65 18.3 79 79 Calm 29.94 1014 10 16 0.00 0.00
4:52 am 04:52 Clear 75 23.9 65 18.3 71 71 Calm 29.93 1014 10 16 0.00 0.00
5:52 am 05:52 Mostly Clear 71 21.7 66 18.9 84 84 Calm 29.94 1014 10 16 0.00 0.00
6:52 am 06:52 Partly Cloudy 72 22.2 67 19.4 84 84 Calm 29.96 1014 10 16 0.00 0.00
7:52 am 07:52 Mostly Sunny 75 23.9 68 20 79 79 NNW 5 7 29.96 1015 8 13 0.00 0.00
8:52 am 08:52 Hazy 79 26.1 68 20 69 69 NNE 5 7 29.96 1015 5 8 0.00 0.00
9:52 am 09:52 Mostly Sunny 84 28.9 67 19.4 57 57 Calm 29.97 1015 8 13 0.00 0.00
10:52 am 10:52 Partly Cloudy 88 31.1 65 18.3 46 46 VRB 3 6 29.97 1015 8 13 0.00 0.00
11:52 am 11:52 Mostly Cloudy 90 32.2 64 17.8 42 42 NE 6 9 29.97 1015 9 14 0.00 0.00
12:52 pm 12:52 Mostly Cloudy 90 32.2 63 17.2 41 41 SE 7 11 29.97 1015 7 11 0.00 0.00
1:52 pm 13:52 Partly Cloudy 91 32.8 63 17.2 39 39 VRB 3 6 29.96 1015 7 11 0.00 0.00
2:52 pm 14:52 Mostly Cloudy 92 33.3 62 16.7 37 37 VRB 5 7 29.95 1014 7 11 0.00 0.00
3:52 pm 15:52 Mostly Cloudy 93 33.9 63 17.2 37 37 VRB 5 7 29.93 1014 7 11 0.00 0.00
4:52 pm 16:52 Mostly Cloudy 92 33.3 66 18.9 43 43 Calm 29.92 1013 7 11 0.00 0.00
5:52 pm 17:52 Partly Cloudy 90 32.2 63 17.2 41 41 Calm 29.91 1013 7 11 0.00 0.00
6:52 pm 18:52 Mostly Cloudy 91 32.8 66 18.9 44 44 Calm 29.89 1012 7 11 0.00 0.00
7:52 pm 19:52 Partly Cloudy 87 30.6 63 17.2 45 45 ESE 7 11 29.90 1012 7 11 0.00 0.00
8:52 pm 20:52 Mostly Cloudy 87 30.6 61 16.1 42 42 SW 3 6 29.90 1013 7 11 0.00 0.00
9:52 pm 21:52 Mostly Cloudy 80 26.7 64 17.8 58 58 SSE 3 6 29.92 1013 8 13 0.00 0.00
10:52 pm 22:52 Mostly Cloudy 81 27.2 64 17.8 57 57 S 3 6 29.93 1014 10 16 0.00 0.00
11:52 pm 23:52 Clear 77 25 65 18.3 66 66 WSW 3 6 29.93 1014 10 16 0.00 0.00

Powered by AerisWeather